[[{"header":{"parameterUnit":"m.s-1","parameterCategory":1,"la1":30.2991,"la2":30.254,"lo1":-89.0895,"lo2":-89.0444,"dy":0.0017,"dx":0.0017,"nx":28,"ny":28,"refTime":"2025-03-31T03:00:00:Z","depth":0,"parameterNumber":2,"parameterNumberName":"U-component_of_WINDS"},"data":[0,0,0,0,0,0,0,0,0,0,0,0,0,0,0,0,0,0,0,0,0,0,0,0,0,0,0,0,0,0,0,0,0,0,0,0,0,0,0,0,0,0,0,0,0,0,0,0,0,0,0,0,0,0,0,0,0,0,1.9472,1.9473,0,1.9532,1.9532,1.9533,1.9525,1.9524,1.9523,1.9522,1.9584,1.9587,1.9589,0,0,0,0,0,0,0,0,0,0,0,0,0,1.9353,1.9356,1.9472,1.9473,1.9474,1.9532,1.9532,1.9533,1.9525,1.9524,1.9523,1.9521,1.9583,1.9587,1.959,0,0,0,0,0,0,0,0,0,0,0,0,0,1.9408,1.9356,1.9472,1.9477,1.9478,1.9531,1.9532,1.9533,1.9525,1.9524,1.9522,1.9521,1.9582,1.9586,1.959,1.9644,0,0,1.9602,1.9604,0,0,0,0,0,0,0,0,1.9405,1.9413,1.9475,1.9476,1.9478,1.9519,1.9513,1.9571,1.9526,1.9507,1.9522,1.952,1.9564,1.9569,1.9584,1.9647,1.9649,1.9602,1.9605,1.9606,1.9607,0,0,0,0,0,0,0,1.9401,1.941,1.9496,1.9476,1.9478,1.9476,1.9482,1.9524,1.9543,1.9509,1.9508,1.9515,1.9564,1.958,1.9585,1.965,1.9602,1.9606,1.9608,1.961,1.9761,1.9762,0,0,0,0,0,0,1.9396,1.9407,1.9494,1.9498,1.9437,1.9479,1.9486,1.9507,1.9543,1.9547,1.9516,1.9515,1.9574,1.9581,1.9587,1.9653,1.9606,1.961,1.9612,1.9759,1.9761,1.9763,0,0,0,0,0,0,1.9394,1.9404,1.9492,1.9452,1.9463,1.9483,1.9507,1.9509,1.9525,1.9549,1.9552,1.9529,1.9573,1.9582,1.963,1.9655,1.9612,1.9615,1.9757,1.976,1.9762,1.9784,0,0,0,0,0,0,1.939,1.9403,1.9423,1.9453,1.9465,1.9533,1.9508,1.9512,1.9532,1.953,1.9561,1.9565,1.9573,1.9624,1.9634,1.9659,1.9618,1.9755,1.9758,1.9761,1.9781,1.9787,1.9792,0,0,0,0,0,1.9386,1.9427,1.9424,1.9435,1.9491,1.9534,1.9541,1.9549,1.9534,1.9554,1.957,1.9564,1.965,1.9629,1.964,1.9667,1.9753,1.9757,1.9761,1.9779,1.9786,1.9792,0,0,0,0,0,0,1.9401,1.9431,1.9428,1.948,1.9505,1.9533,1.9559,1.9556,1.9586,1.9583,1.9591,1.9599,1.9647,1.9662,1.9637,1.9721,1.97,1.9706,1.971,1.9717,1.9722,1.9717,1.9621,0,0,0,0,0,1.941,1.9442,1.9467,1.9511,1.9523,1.9539,1.9558,1.9562,1.9587,1.9598,1.9616,1.9642,1.9675,1.9697,1.9728,1.9783,1.979,1.9807,1.9812,1.9817,1.9822,1.9852,1.986,1.9775,1.9775,1.9775,0,0,1.943,1.9451,1.947,1.9514,1.9534,1.9567,1.9548,1.9584,1.9609,1.9603,1.965,1.9664,1.9694,1.9745,1.9769,1.9759,1.9847,1.9822,1.9825,1.9828,1.9857,1.9865,1.9872,1.9778,1.9777,1.9777,0,0,1.9483,1.9501,1.954,1.956,1.9589,1.9599,1.9608,1.9637,1.9646,1.9693,1.9689,1.9719,1.9776,1.9797,1.9815,1.9876,1.9872,1.9886,1.9914,1.9944,1.995,1.9956,1.9978,1.9986,1.9891,1.9891,1.9891,0,1.9504,1.9553,1.956,1.9597,1.9616,1.9613,1.9652,1.9671,1.9709,1.9723,1.9711,1.9782,1.9801,1.9858,1.9873,1.9887,1.9898,1.9882,1.9949,1.9955,1.9961,1.9982,1.999,1.9893,1.9893,1.9892,1.9892,0,1.9578,1.9612,1.964,1.9677,1.9699,1.9737,1.975,1.9772,1.9774,1.9786,1.9833,1.9856,1.9893,1.9906,1.9909,1.9964,1.9956,1.9947,1.9926,1.997,1.999,1.9998,1.9895,1.9894,1.9894,1.9893,0,0,1.9642,1.9681,1.9692,1.9708,1.974,1.9767,1.9805,1.984,1.9859,1.9886,1.9918,1.9966,1.9957,1.9978,1.9982,2.0008,2.0055,1.9995,1.9996,2.0006,2.0117,2.0124,2.0134,2.0053,2.0054,2.0055,2.0115,0,1.9698,1.9764,1.9771,1.9831,1.9863,1.986,1.9893,1.9916,1.9928,1.9958,1.9971,2.0005,1.9991,2.0003,2.0029,2.0044,2.0078,2.004,2.0083,2.0085,2.0076,2.0144,2.0152,2.0207,2.0123,2.0124,2.0125,0,1.9772,1.98,1.9863,1.989,1.9904,1.9934,1.9967,1.9995,2.0021,2.0028,2.0051,2.0053,2.0092,2.0069,2.0124,2.0098,2.0116,2.0127,2.0129,2.0133,2.0107,2.015,2.0224,2.0233,2.0137,2.0136,2.0135,0,1.9812,1.9866,1.9911,1.9925,1.9958,1.9979,1.9994,2.002,2.004,2.0069,2.0083,2.0116,2.0134,2.016,2.017,2.0153,2.0225,2.0203,2.0232,2.0232,2.0247,2.0246,2.0325,2.0259,2.0259,2.0258,2.0258,0,1.9874,1.9913,1.9929,1.9957,2.0,2.0008,2.005,2.0065,2.0087,2.0117,2.0117,2.0146,2.0157,2.0188,2.0197,2.0241,2.0249,2.0256,2.0258,2.0256,2.0255,2.0268,2.0265,2.0261,2.026,2.026,2.0259,0,1.9927,1.9939,1.9988,2.0015,2.0023,2.0054,2.0078,2.0104,2.0116,2.0154,2.0164,2.0182,2.0218,2.0231,2.0275,2.0281,2.0332,2.0331,2.0323,2.0323,2.0352,2.0349,2.0442,2.0455,2.038,2.0381,2.0381,0,1.9965,1.9995,2.0026,2.0046,2.0061,2.0094,2.0115,2.0124,2.0146,2.0179,2.0202,2.0238,2.0267,2.0324,2.0342,2.0376,2.0375,2.0405,2.038,2.0378,2.0376,2.0374,2.0377,2.041,2.0411,2.0412,2.0412,0,2.0033,2.0037,2.0067,2.01,2.0125,2.0151,2.0176,2.0193,2.0206,2.0231,2.0268,2.029,2.0335,2.0371,2.0405,2.0421,2.0419,2.042,2.0428,2.0427,2.0421,2.0425,2.0336,2.0418,2.0417,2.0417,2.0416,2.0416,2.0079,2.0105,2.0131,2.0165,2.0185,2.0209,2.0235,2.025,2.0281,2.0317,2.0321,2.0361,2.0387,2.0433,2.0451,2.0482,2.0474,2.0486,2.0489,2.0492,2.0494,2.0416,2.0488,2.0488,2.0488,2.0488,2.0488,0,2.0147,2.0163,2.0194,2.0229,2.0256,2.0252,2.0279,2.0302,2.0337,2.0361,2.039,2.0432,2.0467,2.0487,2.0522,2.0543,2.0543,2.0552,2.055,2.0554,2.05,2.0489,2.0551,2.0551,2.0551,2.0551,2.0551,2.0551,2.0185,2.0229,2.0237,2.0291,2.0307,2.0346,2.0362,2.0384,2.0404,2.0451,2.0479,2.0492,2.0515,2.0552,2.0583,2.0589,2.0601,2.0611,2.0616,2.0564,2.0558,2.0552,2.0542,2.0614,2.0614,2.0667,2.0668,2.0668]},{"header":{"parameterUnit":"m.s-1","parameterCategory":1,"la1":30.2991,"la2":30.254,"lo1":-89.0895,"lo2":-89.0444,"dy":0.0017,"dx":0.0017,"nx":28,"ny":28,"refTime":"2025-03-31T03:00:00:Z","depth":0,"parameterNumber":3,"parameterNumberName":"V-component_of_WINDS"},"data":[0,0,0,0,0,0,0,0,0,0,0,0,0,0,0,0,0,0,0,0,0,0,0,0,0,0,0,0,0,0,0,0,0,0,0,0,0,0,0,0,0,0,0,0,0,0,0,0,0,0,0,0,0,0,0,0,0,0,3.2138,3.2138,0,3.2201,3.2202,3.2203,3.2208,3.2208,3.2207,3.2206,3.2271,3.2273,3.2275,0,0,0,0,0,0,0,0,0,0,0,0,0,3.2021,3.2023,3.2138,3.2138,3.2139,3.2201,3.2202,3.2203,3.2208,3.2208,3.2207,3.2206,3.227,3.2273,3.2275,0,0,0,0,0,0,0,0,0,0,0,0,0,3.2077,3.2024,3.2137,3.2149,3.2151,3.2201,3.2202,3.2203,3.2209,3.2208,3.2207,3.2206,3.2269,3.2272,3.2276,3.2318,0,0,3.2287,3.2288,0,0,0,0,0,0,0,0,3.2074,3.2081,3.2147,3.2149,3.2151,3.2196,3.2184,3.2241,3.2209,3.2187,3.2206,3.2205,3.2247,3.2252,3.2266,3.2321,3.2323,3.2287,3.2289,3.229,3.2291,0,0,0,0,0,0,0,3.207,3.2078,3.2163,3.2148,3.215,3.2152,3.2159,3.2195,3.2221,3.2189,3.2189,3.2197,3.2247,3.2263,3.2267,3.2324,3.2287,3.229,3.2292,3.2293,3.2418,3.242,0,0,0,0,0,0,3.2064,3.2075,3.2161,3.2165,3.2109,3.2155,3.2162,3.2182,3.2221,3.2226,3.2198,3.2197,3.2257,3.2263,3.227,3.2323,3.229,3.2294,3.2296,3.2417,3.2419,3.242,0,0,0,0,0,0,3.2061,3.2071,3.2158,3.212,3.2131,3.2158,3.218,3.2184,3.2199,3.2228,3.2232,3.2208,3.2256,3.2265,3.2306,3.2325,3.2295,3.2298,3.2416,3.2418,3.2419,3.2428,0,0,0,0,0,0,3.2058,3.207,3.2086,3.212,3.2133,3.2194,3.2181,3.2186,3.2206,3.2205,3.2239,3.2244,3.2256,3.2301,3.231,3.2329,3.2301,3.2414,3.2417,3.2419,3.2426,3.243,3.2433,0,0,0,0,0,3.2054,3.2086,3.2087,3.2097,3.2154,3.2195,3.2202,3.2216,3.2207,3.2224,3.2242,3.2243,3.2321,3.2305,3.2315,3.2336,3.2413,3.2416,3.2419,3.2425,3.2429,3.2433,0,0,0,0,0,0,3.2053,3.209,3.2092,3.2136,3.2162,3.2195,3.2217,3.222,3.2249,3.2247,3.2263,3.2271,3.2312,3.2328,3.2309,3.2379,3.2366,3.2371,3.2368,3.2372,3.2376,3.2371,3.2304,0,0,0,0,0,3.2058,3.2088,3.2119,3.2155,3.2168,3.219,3.2208,3.2217,3.2244,3.2255,3.2276,3.2303,3.2334,3.2354,3.2383,3.2428,3.2437,3.2448,3.2451,3.2454,3.2458,3.2485,3.2491,3.2429,3.2429,3.2429,0,0,3.2068,3.2092,3.211,3.2155,3.2176,3.2207,3.2199,3.2232,3.2255,3.226,3.2301,3.2318,3.2348,3.2392,3.2412,3.2406,3.2477,3.2457,3.2459,3.2462,3.2488,3.2494,3.2499,3.2431,3.2431,3.243,0,0,3.2103,3.2124,3.2157,3.2179,3.2211,3.2226,3.2234,3.2267,3.2279,3.232,3.2325,3.2352,3.2405,3.2427,3.2445,3.249,3.2492,3.2499,3.2517,3.2543,3.2548,3.2553,3.257,3.2576,3.2503,3.2503,3.2503,0,3.2112,3.2159,3.2174,3.2207,3.2227,3.2234,3.2268,3.2288,3.2328,3.2342,3.2335,3.2402,3.2422,3.2472,3.2484,3.2497,3.2508,3.2496,3.2546,3.2551,3.2555,3.2572,3.2579,3.2504,3.2504,3.2504,3.2503,0,3.2169,3.2202,3.2225,3.2265,3.2287,3.2321,3.2341,3.2362,3.2368,3.2384,3.2427,3.2452,3.2488,3.25,3.2507,3.2552,3.2547,3.2543,3.253,3.2562,3.2578,3.2584,3.2505,3.2505,3.2504,3.2504,0,0,3.2206,3.2254,3.2262,3.2281,3.2318,3.2343,3.2377,3.2413,3.2432,3.2459,3.2489,3.2533,3.253,3.2551,3.256,3.2582,3.2618,3.2576,3.2577,3.2584,3.2671,3.2675,3.2682,3.262,3.2621,3.2622,3.2669,0,3.2246,3.2308,3.2322,3.2375,3.2406,3.2413,3.2443,3.2469,3.2484,3.2513,3.253,3.2562,3.2555,3.2568,3.259,3.2609,3.2636,3.2606,3.2648,3.2649,3.2642,3.2691,3.2695,3.2738,3.2675,3.2676,3.2677,0,3.2302,3.2332,3.2388,3.2422,3.2436,3.2463,3.2497,3.2524,3.2554,3.2564,3.2588,3.2595,3.2631,3.2616,3.2667,3.2646,3.2664,3.2676,3.2678,3.2683,3.2666,3.2699,3.2752,3.2759,3.2687,3.2686,3.2686,0,3.2325,3.2379,3.242,3.2436,3.2476,3.2495,3.2513,3.2542,3.2563,3.2593,3.2607,3.264,3.2659,3.2685,3.2701,3.2688,3.2751,3.2737,3.2761,3.2761,3.2775,3.2774,3.2833,3.2784,3.2784,3.2784,3.2784,0,3.2369,3.2404,3.2432,3.2457,3.2496,3.2512,3.2551,3.2568,3.2594,3.2623,3.2631,3.2658,3.2677,3.2707,3.272,3.2761,3.2769,3.2778,3.2782,3.2779,3.2778,3.2792,3.279,3.2786,3.2785,3.2785,3.2785,0,3.2402,3.2422,3.2467,3.2502,3.2512,3.2539,3.2569,3.2595,3.2611,3.2648,3.2657,3.2682,3.2718,3.2737,3.2781,3.279,3.2837,3.2837,3.2827,3.2829,3.2852,3.285,3.2924,3.2935,3.2877,3.2877,3.2878,0,3.243,3.2457,3.2495,3.2516,3.2534,3.2567,3.2589,3.2606,3.2628,3.2665,3.2686,3.2722,3.2753,3.281,3.2832,3.2866,3.2869,3.2892,3.2874,3.2871,3.2871,3.287,3.2873,3.2896,3.2896,3.2897,3.2897,0,3.2478,3.2487,3.2518,3.2554,3.258,3.2608,3.2636,3.2653,3.2675,3.2699,3.2737,3.276,3.2806,3.2843,3.2879,3.2897,3.2901,3.2902,3.291,3.2908,3.2902,3.2907,3.2837,3.2901,3.2901,3.29,3.29,3.29,3.251,3.2535,3.2567,3.2602,3.2625,3.2651,3.2677,3.2697,3.2729,3.2768,3.2776,3.2816,3.2846,3.2896,3.2915,3.2946,3.2942,3.2952,3.2955,3.2958,3.296,3.2896,3.2953,3.2953,3.2953,3.2953,3.2952,0,3.256,3.2581,3.2613,3.2653,3.2681,3.2682,3.2714,3.2737,3.2772,3.28,3.283,3.2874,3.291,3.2935,3.2971,3.2992,3.2995,3.3001,3.3,3.3005,3.2961,3.2952,3.2998,3.2998,3.2998,3.2998,3.2998,3.2998,3.2589,3.2632,3.2645,3.27,3.272,3.276,3.2778,3.2803,3.2825,3.2874,3.2904,3.292,3.2948,3.2987,3.302,3.3026,3.304,3.3046,3.3053,3.3012,3.3008,3.3003,3.2994,3.3049,3.3049,3.3094,3.3095,3.3095]}]]